This demonstration page uses our WeatherBlox Daily Observations layout. Learn more.

Left ArrowRight Arrow

Hourly Observations for December 24, 2018

Temp ( °F °C ) Dew Point ( °F °C ) Humidity (%) Winds ( mph kmh ) Pressure ( in mb ) Visibility ( mi km ) Precip ( " mm )
12:57 am 00:57 Clear 29 -1.7 25 -3.9 85 85 SSW 6 9 30.14 1021 10 16 0.00 0.00
1:57 am 01:57 Clear 29 -1.7 26 -3.3 89 89 SW 5 7 30.12 1020 10 16 0.00 0.00
2:57 am 02:57 Clear 29 -1.7 26 -3.3 89 89 S 7 11 30.11 1020 10 16 0.00 0.00
3:57 am 03:57 Mostly Clear 31 -0.6 29 -1.7 92 92 SSW 7 11 30.09 1019 10 16 0.00 0.00
4:57 am 04:57 Mostly Cloudy 31 -0.6 28 -2.2 89 89 S 8 13 30.09 1019 10 16 0.00 0.00
5:57 am 05:57 Cloudy 31 -0.6 28 -2.2 89 89 SSW 12 19 30.08 1019 10 16 0.00 0.00
6:57 am 06:57 Mostly Cloudy 30 -1.1 28 -2.2 92 92 SW 7 11 30.07 1018 10 16 0.00 0.00
8:57 am 08:57 Sunny 30 -1.1 28 -2.2 92 92 W 5 7 30.07 1018 10 16 0.00 0.00
9:57 am 09:57 Sunny 33 0.6 29 -1.7 85 85 SSW 7 11 30.06 1018 10 16 0.00 0.00
10:57 am 10:57 Sunny 36 2.2 31 -0.6 82 82 S 8 13 30.05 1018 10 16 0.00 0.00
11:57 am 11:57 Sunny 37 2.8 30 -1.1 76 76 SSW 6 9 30.03 1017 10 16 0.00 0.00
12:57 pm 12:57 Partly Cloudy 38 3.3 31 -0.6 76 76 SSW 3 6 29.99 1016 10 16 0.00 0.00
1:57 pm 13:57 Partly Cloudy 38 3.3 31 -0.6 76 76 SSE 6 9 29.98 1015 10 16 0.00 0.00
2:57 pm 14:57 Sunny 38 3.3 31 -0.6 76 76 SSE 10 17 29.97 1015 10 16 0.00 0.00
3:57 pm 15:57 Sunny 37 2.8 31 -0.6 79 79 S 10 17 29.98 1015 10 16 0.00 0.00
4:57 pm 16:57 Sunny 36 2.2 31 -0.6 82 82 SW 5 7 30.01 1016 10 16 0.00 0.00
5:57 pm 17:57 Clear 32 0 29 -1.7 88 88 S 6 9 30.03 1017 10 16 0.00 0.00
6:57 pm 18:57 Clear 30 -1.1 27 -2.8 88 88 S 6 9 30.04 1017 10 16 0.00 0.00
7:57 pm 19:57 Clear 28 -2.2 26 -3.3 92 92 S 5 7 30.05 1018 10 16 0.00 0.00
8:57 pm 20:57 Clear 29 -1.7 28 -2.2 96 96 S 8 13 30.05 1018 10 16 0.00 0.00
9:57 pm 21:57 Clear 27 -2.8 26 -3.3 96 96 WSW 3 6 30.06 1018 10 16 0.00 0.00
10:57 pm 22:57 Clear 26 -3.3 24 -4.4 92 92 Calm 30.06 1018 10 16 0.00 0.00
11:57 pm 23:57 Clear 24 -4.4 22 -5.6 91 91 NW 3 6 30.07 1018 10 16 0.00 0.00

Powered by AerisWeather